Regional Weather Roundup
Issued by NWS

Home | Current Version | Previous Version | Text Only | Print | Product List | Glossary On
Versions: 1 2 3 4 5 6 7 8 9 10 11 12 13 14 15 16 17 18 19 20 21 22 23 24 25 26 27
000
ASUS46 KPQR 160210
RWROR

OREGON REGIONAL WEATHER ROUNDUP
NATIONAL WEATHER SERVICE PORTLAND OR
600 PM PST FRI DEC 15 2017

NOTE: "FAIR" INDICATES FEW OR NO CLOUDS BELOW 12,000 FEET WITH
NO SIGNIFICANT WEATHER AND/OR OBSTRUCTIONS TO VISIBILITY.

ORZ001>013-160300-
NORTHWEST OREGON


CITY           SKY/WX    TMP DP  RH WIND       PRES   REMARKS
ASTORIA        MOCLDY    44  41  89 W7        30.29R
NEWPORT        DRIZZLE   46  43  87 N16G22    30.34S
PORTLAND       MOCLDY    37  35  92 E6        30.30R WCI  32
VANCOUVER WA   MOCLDY    36  35  96 CALM      30.30R
SCAPPOOSE      CLOUDY    34  33  96 W3        30.30R
HILLSBORO      MOCLDY    33  30  88 N3        30.30R
AURORA         CLOUDY    38  36  92 SE5       30.31R FOG     WCI  34
MCMINNVILLE    PTCLDY    32  31  96 CALM      30.31S FOG
SALEM          CLEAR     35  33  92 N7        30.29S WCI  29
CORVALLIS      CLEAR     34  33  96 CALM      30.31R
EUGENE         LGT RAIN  37  37 100 CALM      30.31R
$$

ORZ021-028-160300-
SOUTHWEST OREGON


CITY           SKY/WX    TMP DP  RH WIND       PRES   REMARKS
NORTH BEND     LGT RAIN  43  43 100 SE5       30.35S
BROOKINGS      CLEAR     49  46  90 N5        30.27R
ROSEBURG       CLOUDY    39  38  96 CALM      30.33S FOG
SEXTON SUMMIT  FOG       38  36  92 CALM      30.22S VSB 1/2
GRANTS PASS    CLOUDY    36  34  93 CALM      30.33S FOG
MEDFORD        CLOUDY    40  37  89 S3        30.26F
$$

ORZ014>016-041-160300-
COLUMBIA GORGE


CITY           SKY/WX    TMP DP  RH WIND       PRES   REMARKS
TROUTDALE      MOCLDY    38  35  89 CALM      30.30R
HOOD RIVER     MOCLDY    37  34  87 W7        30.20F WCI  32
THE DALLES     PTCLDY    43  36  76 NW10      30.20R
$$

ORZ029>031-041-044-049-050-061>064-502-503-505>511-160300-
EASTERN OREGON


CITY           SKY/WX    TMP DP  RH WIND       PRES   REMARKS
MADRAS         MOCLDY   N/A N/A N/A E5        30.18R
REDMOND        MOCLDY    38  30  73 N8        30.14R WCI  32
BEND           MOCLDY    39  30  70 NE6       30.15R WCI  35
PRINEVILLE     MOCLDY    39  30  70 W9G17     30.14R WCI  33
KLAMATH FALLS  CLOUDY    34  30  85 NW5       30.16R WCI  30
LAKEVIEW       FLURRIES  34  32  92 NE6       30.13S WCI  29
HERMISTON      MOCLDY    30  29  96 CALM      30.16S
PENDLETON      MOCLDY    33  30  88 NW3       30.11S
JOHN DAY       FOG       33  32  96 CALM      30.10F VSB 1
MEACHAM        CLOUDY    35  32  88 VRB3      30.06S
LA GRANDE      CLOUDY    28  26  92 CALM      30.12F
BAKER CITY     CLOUDY    26  22  84 CALM      30.12F
BURNS          LGT SNOW  24  23  96 NE3       30.12R FOG
ROME             N/A     23  21  92 N3        30.09R
ONTARIO        LGT SNOW  29  27  92 CALM      30.20F VSB 1
$$




USA.gov is the U.S. government's official web portal to all federal, state and local government web resources and services.